ARABSAT 5C

导读

ARABSAT 5C是阿拉伯卫星通信组织第五代卫星星座的最后一颗卫星,由欧洲企业联合建造,于2011年9月21日发射。卫星发射质量4770千克,功率10千瓦,设计寿命15年,定点于东经20度地球同步轨道。它搭载C和Ka波段转发器,为非洲、中东地区提供广播通信服务,标志着Arabsat第五代卫星星座全面完成部署,投入商业运营。

Basic Information
目录编号:
37810
目录名称:
ARABSAT 5C
国际标识:
2011-049B
轨道中心:
EARTH
卫星名称:
ARABSAT 5C
卫星全名:
--
卫星状态:
在轨 (已飞行5381 天)
发射日期:
2011-09-21 UTC
国别 :
(ASCO)
星等 :
--
Orbit Information
数据来源 国际轨道数据 AOE轨道数据
星历时间 2026-06-15T03:39:38+0800
7小时前
查看轨道信息
2026-06-15T05:00:00+0800
6小时前
查看轨道信息
半长轴 42165.037km 42165.037km
偏心率 0.0003401 0.0003335
轨道倾角 0.050° 0.051°
近地点辐角 89.439° 84.889°
升交点赤经 11.755° 15.190°
平近点角 116.818° 138.077°
近地点 35772.559km 35772.837km
远地点 35801.241km 35800.963km
周期 1436.112分钟 1436.112分钟
每日圈数 1.002707 1.002707
Detailed Information
使用方式:
暂无
2D Orbit Map
3D Orbit Map
Orbit Altitude Analysis Chart
Orbit Inclination Analysis Chart
Orbit Comprehensive Analysis Chart
View Comprehensive Chart